Flag for U.S.A. Weather past 2 weeks in Angels Camp, California, U.S.A.

Now
60 °F

Light rain. Overcast.


Feels Like: 60 °F
Forecast: 47 / 60 °F
Wind: No wind

Location: Modesto City-County-Sham Field

Current Time: Apr 25, 2015 at 12:43:22 AM

Latest Report: Apr 24, 2015 at 11:53 PM


Visibility: 10 mi

Pressure: 29.96 "Hg

Humidity: 58%

Dew point: 45 °F

Location of Angels CampLocation

Historic Weather in Angels Camp — Graph

°F

Angels Camp temperature yesterday

Maximum temperature yesterday: 74 °F (at 1:53 PM)
Minimum temperature yesterday: 52 °F (at 5:53 AM)
Average temperature yesterday: 64 °F

Past Weeks' High & Low Weather Summary

 TemperatureHumidityPressure
High86 °F (Apr 18, 3:53 PM)89% (Apr 13, 5:53 AM)30.31 "Hg (Apr 13, 5:53 AM)
Low47 °F (Apr 16, 6:53 AM)10% (Apr 14, 3:53 PM)29.73 "Hg (Apr 20, 6:53 PM)
Average65 °F47%29.95 "Hg
* Reported Apr 9 10:53 PM — Apr 24 10:53 PM, Angels Camp, Weather by CustomWeather, © 2015

Note: Actual official high and low records may vary slightly from our data, if they occured in-between our weather recording intervals... More about our weather records

Advertising

Angels Camp weather history for previous 24 hours

 ConditionsComfort  
Time TempWeatherWind HumidityBarometerVisibility
10:53 PM
Fri, Apr 24
60 °FMostly cloudy.8 mph52%29.96 "Hg10 mi
9:53 PM61 °FOvercast.6 mph46%29.99 "Hg10 mi
8:53 PM62 °FPassing clouds.9 mph41%29.98 "Hg10 mi
7:53 PM63 °FScattered clouds.9 mph31%29.97 "Hg10 mi
6:53 PM67 °FSunny.13 mph20%29.95 "Hg10 mi
5:53 PM72 °FSunny.18 mph15%29.93 "Hg10 mi
3:53 PM74 °FSunny.15 mph17%29.93 "Hg10 mi
2:53 PM74 °FSunny.16 mph17%29.94 "Hg10 mi
1:53 PM74 °FSunny.14 mph16%29.95 "Hg10 mi
12:53 PM72 °FSunny.9 mph29%29.96 "Hg10 mi
11:53 AM70 °FPassing clouds.10 mph34%29.97 "Hg10 mi
10:53 AM67 °FPassing clouds.12 mph37%29.96 "Hg10 mi
9:53 AM64 °FSunny.8 mph47%29.95 "Hg10 mi
8:53 AM63 °FPassing clouds.6 mph54%29.94 "Hg10 mi
7:53 AM60 °FSunny.5 mph62%29.93 "Hg10 mi
6:53 AM56 °FClear.No wind70%29.90 "Hg10 mi
5:53 AM52 °FClear.7 mph80%29.87 "Hg10 mi
4:53 AM54 °FClear.No wind77%29.86 "Hg10 mi
3:53 AM58 °FClear.5 mph67%29.85 "Hg10 mi
2:53 AM57 °FClear.No wind67%29.83 "Hg10 mi
1:53 AM60 °FClear.3 mph60%29.83 "Hg10 mi
12:53 AM61 °FClear.5 mph60%29.83 "Hg10 mi
Weather by CustomWeather, © 2015

See weather overviewHow to use our weather pages